Weather History for Rifle, CO

Change the Weather History Date:

Monday, May 6, 2013

  Actual Average Record
Temperature  
Mean Temperature 57 °F 54 °F  
Max Temperature 67 °F 70 °F 86 °F (1966)
Min Temperature 46 °F 38 °F 20 °F (1982)
Degree Days  
Heating Degree Days 8 11  
Month to date heating degree days 93 73  
Since 1 July heating degree days 6523 6370  
Cooling Degree Days 0 0  
Month to date cooling degree days 0 0  
Year to date cooling degree days 0 0  
Growing Degree Days 6 (Base 50)    
Moisture  
Dew Point 36 °F    
Average Humidity 63    
Maximum Humidity 100    
Minimum Humidity 26    
Precipitation  
Precipitation 0.13 in 0.05 in 0.43 in (1972)
Month to date precipitation 0.35 0.31  
Year to date precipitation 3.31 4.22  
Sea Level Pressure  
Sea Level Pressure 29.90 in    
Wind  
Wind Speed 7 mph (WNW)    
Max Wind Speed 30 mph    
Max Gust Speed 39 mph    
Visibility 10 miles    
Events Rain    
T = Trace of Precipitation, MM = Missing Value Source: NWS Daily Summary

Daily Weather History Graph

Daily Weather History Graph

Search for Another Location

Airport:

Trip Planner

Search our weather history database for the weather conditions in past years. The results will help you decide how hot, cold, wet, or windy it might be!

Date:

Astronomy

May. 06, 2013 Rise Set
Actual Time 6:05 AM MDT 8:09 PM MDT
Civil Twilight 5:36 AM MDT 8:39 PM MDT
Nautical Twilight 5:00 AM MDT 9:15 PM MDT
Astronomical Twilight 4:20 AM MDT 9:55 PM MDT
Moon 4:08 AM MDT (5/6) 5:13 PM MDT (5/6)
Length of Visible Light 15h 03m
Length of Day
14h 04m
Waning Crescent, 10% of the Moon is Illuminated
May 6
Waning Crescent
May 9
New
May 17
First Quarter
May 24
Full
May 31
Last Quarter

Hourly Weather History & Observations

Time (MDT) Temp. Windchill Dew Point Humidity Pressure Visibility Wind Dir Wind Speed Gust Speed Precip Events Conditions
12:53 AM 48.9 °F - 28.9 °F 46% 29.86 in 10.0 mi Calm Calm - N/A   Clear
1:53 AM 48.0 °F - 30.0 °F 50% 29.86 in 10.0 mi West 4.6 mph - N/A   Mostly Cloudy
2:53 AM 48.9 °F - 28.9 °F 46% 29.86 in 10.0 mi West 6.9 mph - N/A   Overcast
3:53 AM 48.9 °F - 28.0 °F 44% 29.88 in 10.0 mi Variable 3.5 mph - N/A   Overcast
4:53 AM 48.0 °F - 32.0 °F 54% 29.88 in 10.0 mi Variable 4.6 mph - N/A   Overcast
5:53 AM 51.1 °F - 33.1 °F 50% 29.87 in 10.0 mi Variable 4.6 mph - N/A   Overcast
6:53 AM 50.0 °F - 33.1 °F 52% 29.89 in 10.0 mi Variable 4.6 mph - N/A   Scattered Clouds
7:53 AM 51.1 °F - 36.0 °F 56% 29.90 in 10.0 mi NNW 8.1 mph - N/A   Overcast
8:53 AM 54.0 °F - 33.1 °F 45% 29.90 in 10.0 mi WSW 6.9 mph - N/A   Partly Cloudy
9:53 AM 60.1 °F - 34.0 °F 38% 29.87 in 10.0 mi North 8.1 mph - N/A   Clear
10:53 AM 64.0 °F - 30.9 °F 29% 29.84 in 10.0 mi NE 8.1 mph 18.4 mph N/A   Clear
11:53 AM 66.0 °F - 30.9 °F 27% 29.82 in 10.0 mi NNE 6.9 mph - N/A   Clear
12:53 PM 64.0 °F - 30.0 °F 28% 29.81 in 10.0 mi WSW 11.5 mph - N/A   Mostly Cloudy
1:32 PM 60.8 °F - 33.8 °F 36% 29.94 in 10.0 mi South 18.4 mph 34.5 mph 0.00 in   Overcast
1:53 PM 61.0 °F - 30.0 °F 31% 29.82 in 10.0 mi South 19.6 mph 31.1 mph 0.00 in   Overcast
2:53 PM 63.0 °F - 32.0 °F 31% 29.80 in 10.0 mi WSW 9.2 mph - N/A   Mostly Cloudy
3:53 PM 59.0 °F - 36.0 °F 42% 29.85 in 10.0 mi South 15.0 mph 25.3 mph N/A   Overcast
4:00 PM 57.2 °F - 37.4 °F 48% 29.95 in 10.0 mi SSE 19.6 mph 26.5 mph N/A   Overcast
4:53 PM 52.0 °F - 41.0 °F 66% 29.87 in 10.0 mi SSE 20.7 mph - 0.00 in   Overcast
5:53 PM 50.0 °F - 44.1 °F 80% 29.91 in 10.0 mi North 12.7 mph 16.1 mph 0.01 in Rain Light Rain
6:53 PM 48.0 °F - 44.1 °F 86% 29.94 in 10.0 mi Calm Calm - 0.04 in Rain Light Rain
7:53 PM 48.0 °F - 44.1 °F 86% 29.94 in 10.0 mi WNW 4.6 mph - 0.01 in   Overcast
8:53 PM 48.0 °F - 45.0 °F 89% 29.94 in 10.0 mi WNW 4.6 mph - 0.01 in Rain Light Rain
9:53 PM 46.9 °F - 46.0 °F 97% 29.95 in 8.0 mi East 3.5 mph - 0.01 in Rain Light Rain
10:30 PM 46.4 °F 45.2 °F 44.6 °F 93% 30.06 in 8.0 mi ENE 3.5 mph - 0.04 in Rain Light Rain
10:34 PM 46.4 °F 43.5 °F 44.6 °F 93% 30.06 in 8.0 mi ENE 5.8 mph - 0.04 in Rain Light Rain
10:53 PM 46.9 °F - 45.0 °F 93% 29.95 in 10.0 mi NE 4.6 mph - 0.05 in Rain Light Rain
11:53 PM 46.9 °F - 45.0 °F 93% 29.94 in 10.0 mi Calm Calm - 0.00 in   Overcast